Weather History for Mosby, MO

Change the Weather History Date:

Friday, November 23, 2012

  Actual Average (KMKC) Record (KMKC)
Temperature  
Mean Temperature 34 °F -  
Max Temperature 44 °F 50 °F 69 °F (2006)
Min Temperature 23 °F 33 °F 15 °F (2013)
Degree Days  
Heating Degree Days 31    
Moisture  
Dew Point 20 °F    
Average Humidity 56    
Maximum Humidity 80    
Minimum Humidity 36    
Precipitation  
Precipitation 0.00 in - - ()
Sea Level Pressure  
Sea Level Pressure 30.39 in    
Wind  
Wind Speed 10 mph ()    
Max Wind Speed 22 mph    
Max Gust Speed 37 mph    
Visibility 10.0 miles    
Events      
Averages and records for this station are not official NWS values.
T = Trace of Precipitation, MM = Missing Value Source: Averaged Metar Reports

Daily Weather History Graph

Daily Weather History Graph

Search for Another Location

Airport:

Trip Planner

Search our weather history database for the weather conditions in past years. The results will help you decide how hot, cold, wet, or windy it might be!

Date:

Astronomy

Nov. 23, 2012 Rise Set
Actual Time 7:10 AM CST 4:57 PM CST
Civil Twilight 6:41 AM CST 5:26 PM CST
Nautical Twilight 6:08 AM CST 5:59 PM CST
Astronomical Twilight 5:36 AM CST 6:31 PM CST
Moon 2:10 PM CST 2:31 AM CST
Length of Visible Light 10h 45m
Length of Day
9h 46m
Waxing Gibbous, 80% of the Moon is Illuminated
Nov 23
Waxing Gibbous
Nov 28
Full
Dec 6
Last Quarter
Dec 13
New
Dec 19
First Quarter

Hourly Weather History & Observations

Time (CST) Temp. Windchill Dew Point Humidity Pressure Visibility Wind Dir Wind Speed Gust Speed Precip Events Conditions
12:15 AM 44.6 °F 42.2 °F 35.6 °F 71% 30.24 in 10.0 mi NW 4.6 mph - N/A   Clear
12:35 AM 42.8 °F 41.1 °F 35.6 °F 76% 30.25 in 10.0 mi NW 3.5 mph - N/A   Clear
1:15 AM 42.8 °F 41.1 °F 35.6 °F 76% 30.26 in 10.0 mi WNW 3.5 mph - N/A   Clear
1:35 AM 42.8 °F - 33.8 °F 70% 30.26 in 10.0 mi Calm Calm - N/A   Clear
1:55 AM 42.8 °F 39.3 °F 33.8 °F 70% 30.25 in 10.0 mi West 5.8 mph - N/A   Clear
2:35 AM 41.0 °F 38.0 °F 32.0 °F 70% 30.25 in 10.0 mi WSW 4.6 mph - N/A   Clear
2:55 AM 41.0 °F 36.4 °F 32.0 °F 70% 30.26 in 10.0 mi West 6.9 mph - N/A   Clear
3:15 AM 41.0 °F 34.7 °F 32.0 °F 70% 30.26 in 10.0 mi WNW 10.4 mph - N/A   Clear
3:35 AM 42.8 °F 35.8 °F 32.0 °F 66% 30.26 in 10.0 mi WNW 13.8 mph 20.7 mph N/A   Clear
3:55 AM 42.8 °F 35.8 °F 32.0 °F 66% 30.26 in 10.0 mi WNW 13.8 mph 19.6 mph N/A   Clear
4:15 AM 42.8 °F 34.3 °F 30.2 °F 61% 30.26 in 10.0 mi WNW 19.6 mph 26.5 mph N/A   Clear
4:35 AM 41.0 °F 33.1 °F 28.4 °F 61% 30.28 in 10.0 mi NW 15.0 mph 23.0 mph N/A   Clear
4:55 AM 39.2 °F 29.0 °F 23.0 °F 52% 30.30 in 10.0 mi NW 21.9 mph 36.8 mph N/A   Unknown
5:15 AM 37.4 °F 27.5 °F 23.0 °F 56% 30.31 in 10.0 mi WNW 18.4 mph 27.6 mph N/A   Clear
5:35 AM 35.6 °F 25.2 °F 23.0 °F 60% 30.32 in 10.0 mi NW 18.4 mph 35.7 mph N/A   Mostly Cloudy
5:55 AM 35.6 °F 24.5 °F 23.0 °F 60% 30.33 in 10.0 mi NW 20.7 mph 29.9 mph N/A   Overcast
6:15 AM 35.6 °F 24.2 °F 21.2 °F 56% 30.34 in 10.0 mi NW 21.9 mph 29.9 mph N/A   Overcast
6:35 AM 33.8 °F 23.9 °F 19.4 °F 56% 30.36 in 10.0 mi NW 15.0 mph 25.3 mph N/A   Overcast
6:55 AM 33.8 °F 23.9 °F 19.4 °F 56% 30.37 in 10.0 mi NW 15.0 mph 28.8 mph N/A   Scattered Clouds
7:15 AM 32.0 °F 20.1 °F 19.4 °F 60% 30.39 in 10.0 mi NW 19.6 mph 25.3 mph N/A   Clear
7:35 AM 32.0 °F 20.8 °F 19.4 °F 60% 30.40 in 10.0 mi NW 17.3 mph 28.8 mph N/A   Clear
7:55 AM 32.0 °F 20.8 °F 19.4 °F 60% 30.41 in 10.0 mi NW 17.3 mph 24.2 mph N/A   Clear
8:15 AM 32.0 °F 22.5 °F 19.4 °F 60% 30.42 in 10.0 mi WNW 12.7 mph 23.0 mph N/A   Clear
8:35 AM 32.0 °F 20.1 °F 19.4 °F 60% 30.43 in 10.0 mi WNW 19.6 mph 26.5 mph N/A   Clear
8:55 AM 32.0 °F 21.6 °F 19.4 °F 60% 30.44 in 10.0 mi NW 15.0 mph 24.2 mph N/A   Clear
9:15 AM 32.0 °F 19.8 °F 19.4 °F 60% 30.45 in 10.0 mi NW 20.7 mph 25.3 mph N/A   Clear
9:35 AM 32.0 °F 20.5 °F 17.6 °F 55% 30.46 in 10.0 mi NW 18.4 mph 31.1 mph N/A   Clear
9:55 AM 32.0 °F 20.1 °F 19.4 °F 60% 30.46 in 10.0 mi NW 19.6 mph 26.5 mph N/A   Clear
10:15 AM 32.0 °F 20.1 °F 19.4 °F 60% 30.47 in 10.0 mi NW 19.6 mph 24.2 mph N/A   Clear
10:35 AM 32.0 °F 20.5 °F 19.4 °F 60% 30.47 in 10.0 mi WNW 18.4 mph 28.8 mph N/A   Clear
10:55 AM 33.8 °F 23.9 °F 19.4 °F 56% 30.47 in 10.0 mi NW 15.0 mph 20.7 mph N/A   Clear
11:35 AM 33.8 °F 23.2 °F 17.6 °F 52% 30.46 in 10.0 mi WNW 17.3 mph 28.8 mph N/A   Clear
11:55 AM 35.6 °F 25.9 °F 17.6 °F 48% 30.45 in 10.0 mi WNW 16.1 mph 24.2 mph N/A   Clear
12:15 PM 35.6 °F 26.6 °F 17.6 °F 48% 30.44 in 10.0 mi WNW 13.8 mph 24.2 mph N/A   Clear
12:35 PM 35.6 °F 24.8 °F 17.6 °F 48% 30.44 in 10.0 mi WNW 19.6 mph 26.5 mph N/A   Clear
1:15 PM 35.6 °F 25.9 °F 14.0 °F 41% 30.43 in 10.0 mi NNW 16.1 mph 25.3 mph N/A   Clear
1:35 PM 35.6 °F 26.2 °F 14.0 °F 41% 30.44 in 10.0 mi NW 15.0 mph 23.0 mph N/A   Clear
1:55 PM 37.4 °F 27.2 °F 14.0 °F 38% 30.42 in 10.0 mi NW 19.6 mph 26.5 mph N/A   Clear
2:15 PM 37.4 °F 28.2 °F 14.0 °F 38% 30.42 in 10.0 mi NW 16.1 mph 21.9 mph N/A   Clear
2:35 PM 37.4 °F 27.8 °F 12.2 °F 36% 30.42 in 10.0 mi NW 17.3 mph 24.2 mph N/A   Clear
2:55 PM 37.4 °F 28.5 °F 12.2 °F 36% 30.42 in 10.0 mi NW 15.0 mph 21.9 mph N/A   Clear
3:15 PM 37.4 °F 28.9 °F 12.2 °F 36% 30.42 in 10.0 mi NNW 13.8 mph 21.9 mph N/A   Clear
3:35 PM 37.4 °F 28.5 °F 14.0 °F 38% 30.43 in 10.0 mi WNW 15.0 mph 19.6 mph N/A   Clear
3:55 PM 37.4 °F 27.8 °F 14.0 °F 38% 30.43 in 10.0 mi WNW 17.3 mph 21.9 mph N/A   Clear
4:15 PM 35.6 °F 28.6 °F 14.0 °F 41% 30.43 in 10.0 mi WNW 9.2 mph - N/A   Clear
4:35 PM 35.6 °F 26.6 °F 12.2 °F 38% 30.42 in 10.0 mi WNW 13.8 mph - N/A   Clear
4:55 PM 35.6 °F 27.5 °F 12.2 °F 38% 30.43 in 10.0 mi NW 11.5 mph - N/A   Clear
5:15 PM 33.8 °F 27.0 °F 14.0 °F 44% 30.43 in 10.0 mi NW 8.1 mph - N/A   Clear
5:35 PM 33.8 °F 26.4 °F 14.0 °F 44% 30.43 in 10.0 mi NW 9.2 mph - N/A   Clear
6:15 PM 33.8 °F 27.7 °F 12.2 °F 41% 30.44 in 10.0 mi NW 6.9 mph - N/A   Unknown
6:35 PM 32.0 °F 26.4 °F 12.2 °F 44% 30.44 in 10.0 mi NW 5.8 mph - N/A   Unknown
7:15 PM 32.0 °F - 14.0 °F 48% 30.44 in 10.0 mi Calm Calm - N/A   Clear
7:35 PM 32.0 °F - 14.0 °F 48% 30.44 in 10.0 mi Calm Calm - N/A   Clear
8:15 PM 32.0 °F 28.7 °F 14.0 °F 48% 30.44 in 10.0 mi WNW 3.5 mph - N/A   Clear
8:35 PM 30.2 °F 26.7 °F 14.0 °F 51% 30.44 in 10.0 mi NW 3.5 mph - N/A   Clear
9:15 PM 30.2 °F - 14.0 °F 51% 30.44 in 10.0 mi Calm Calm - N/A   Clear
9:35 PM 28.4 °F - 15.8 °F 59% 30.44 in 10.0 mi Calm Calm - N/A   Clear
9:55 PM 26.6 °F - 15.8 °F 64% 30.43 in 10.0 mi Calm Calm - N/A   Clear
10:15 PM 24.8 °F 20.5 °F 15.8 °F 69% 30.43 in 10.0 mi West 3.5 mph - N/A   Clear
10:35 PM 24.8 °F - 17.6 °F 74% 30.43 in 10.0 mi Calm Calm - N/A   Clear
10:55 PM 24.8 °F - 17.6 °F 74% 30.43 in 10.0 mi Calm Calm - N/A   Clear
11:15 PM 24.8 °F - 17.6 °F 74% 30.43 in 10.0 mi Calm Calm - N/A   Clear
11:35 PM 23.0 °F - 17.6 °F 80% 30.43 in 10.0 mi Calm Calm - N/A   Clear